Location: Unspecified
(50.7693°N, 0.0000°E)
Time: 17:42:38
(UTC+00:00)

Transit 4A - Pass Details

Date: 02 July 2019
Orbit: 862 x 982 km, 66.8° (Epoch: 20 July)

Event Time Altitude Azimuth Distance (km) Brightness Sun altitude
Rises 15:59:59 0° 314° (NW) 3,683 11.4 37.1°
Reaches altitude 10° 16:03:18 10° 298° (WNW) 2,718 11.2 36.6°
Maximum altitude 16:07:34 19° 256° (WSW) 2,099 11.6 35.9°
Drops below altitude 10° 16:11:46 10° 213° (SSW) 2,659 10.9 35.2°
Sets 16:14:59 0° 196° (SSW) 3,575 11.2 34.7°
